TimeEDT,TemperatureF,Dew PointF,Humidity,Sea Level PressureIn,VisibilityMPH,Wind Direction,Wind SpeedMPH,Gust SpeedMPH,PrecipitationIn,Events,Conditions,WindDirDegrees,DateUTC
12:52 AM,64.9,59.0,81,29.93,10.0,Calm,Calm,-,N/A,,Mostly Cloudy,0,2013-07-25 04:52:00
1:52 AM,64.9,59.0,81,29.91,10.0,Calm,Calm,-,N/A,,Overcast,0,2013-07-25 05:52:00
2:52 AM,64.0,59.0,84,29.91,10.0,Calm,Calm,-,N/A,,Mostly Cloudy,0,2013-07-25 06:52:00
3:52 AM,63.0,57.9,84,29.91,10.0,Calm,Calm,-,N/A,,Mostly Cloudy,0,2013-07-25 07:52:00
4:52 AM,63.0,59.0,87,29.91,7.0,Calm,Calm,-,N/A,,Mostly Cloudy,0,2013-07-25 08:52:00
5:49 AM,62.6,57.2,82,30.02,2.5,Calm,Calm,-,N/A,,Haze,0,2013-07-25 09:49:00
5:52 AM,63.0,57.9,84,29.92,3.0,Calm,Calm,-,N/A,,Haze,0,2013-07-25 09:52:00
6:13 AM,62.6,57.2,82,30.03,1.2,Calm,Calm,-,N/A,,Haze,0,2013-07-25 10:13:00
6:15 AM,60.8,57.2,88,30.03,0.8,Calm,Calm,-,N/A,,Scattered Clouds,0,2013-07-25 10:15:00
6:31 AM,60.8,57.2,88,30.03,0.2,Calm,Calm,-,N/A,Fog,Fog,0,2013-07-25 10:31:00
6:52 AM,61.0,57.0,87,29.94,0.2,Calm,Calm,-,N/A,Fog,Fog,0,2013-07-25 10:52:00
7:52 AM,62.1,57.9,86,29.96,0.2,Calm,Calm,-,N/A,Fog,Fog,0,2013-07-25 11:52:00
8:52 AM,63.0,59.0,87,29.97,0.2,NW,3.5,-,N/A,Fog,Fog,320,2013-07-25 12:52:00
9:02 AM,62.6,59.0,88,30.07,1.2,West,4.6,-,N/A,,Overcast,270,2013-07-25 13:02:00
9:20 AM,62.6,59.0,88,30.08,3.0,Variable,3.5,-,N/A,,Overcast,0,2013-07-25 13:20:00
9:40 AM,64.4,59.0,83,30.08,9.0,Variable,4.6,-,N/A,,Overcast,0,2013-07-25 13:40:00
9:52 AM,66.0,59.0,78,29.98,10.0,West,5.8,-,N/A,,Overcast,260,2013-07-25 13:52:00
9:59 AM,66.2,57.2,73,30.07,10.0,Calm,Calm,-,N/A,,Overcast,0,2013-07-25 13:59:00
10:16 AM,68.0,55.4,64,30.07,10.0,Variable,3.5,-,N/A,,Scattered Clouds,0,2013-07-25 14:16:00
10:52 AM,70.0,54.0,57,29.98,10.0,Calm,Calm,-,N/A,,Partly Cloudy,0,2013-07-25 14:52:00
11:52 AM,73.9,55.9,53,29.98,10.0,North,4.6,-,N/A,,Mostly Cloudy,10,2013-07-25 15:52:00
12:52 PM,72.0,55.0,55,29.99,10.0,Variable,4.6,-,N/A,,Mostly Cloudy,0,2013-07-25 16:52:00
1:52 PM,75.0,55.0,50,29.99,10.0,WNW,11.5,-,N/A,,Partly Cloudy,300,2013-07-25 17:52:00
2:52 PM,73.9,54.0,50,29.99,10.0,NNW,8.1,-,N/A,,Mostly Cloudy,340,2013-07-25 18:52:00
3:52 PM,75.0,53.1,46,29.99,10.0,North,5.8,-,N/A,,Partly Cloudy,350,2013-07-25 19:52:00
4:52 PM,78.1,52.0,40,29.98,10.0,Calm,Calm,-,N/A,,Clear,0,2013-07-25 20:52:00
5:52 PM,75.9,53.1,45,30.00,10.0,West,5.8,-,N/A,,Clear,280,2013-07-25 21:52:00
6:52 PM,75.0,54.0,48,30.02,10.0,WNW,5.8,-,N/A,,Clear,300,2013-07-25 22:52:00
7:52 PM,72.0,55.0,55,30.04,10.0,Variable,4.6,-,N/A,,Clear,0,2013-07-25 23:52:00
8:52 PM,66.9,55.0,66,30.05,10.0,Calm,Calm,-,N/A,,Clear,0,2013-07-26 00:52:00
9:52 PM,64.0,55.0,73,30.07,10.0,Calm,Calm,-,N/A,,Clear,0,2013-07-26 01:52:00
10:52 PM,64.9,54.0,68,30.08,10.0,Calm,Calm,-,N/A,,Scattered Clouds,0,2013-07-26 02:52:00
11:52 PM,64.0,53.1,67,30.08,10.0,West,3.5,-,N/A,,Clear,280,2013-07-26 03:52:00